(188828) = 2005 YH277 = 2004 OD9

Discovered at Kitt Peak on 2005-12-25 by Spacewatch.

Orbit

Orbit type: Main Belt

Note: WebGL enabled browser required.

epoch2023-09-13.0
epoch JD2460200.5
perihelion date2022-06-19.37702
perihelion JD2459749.87702
argument of perihelion (°)102.84978
ascending node (°)201.48997
inclination (°)0.56237
eccentricity0.1622834
perihelion distance (AU)2.2752715
Tisserand w.r.t. Jupiter3.3
ΔV w.r.t. Earth (km/sec)9.5
semimajor axis (AU)2.7160397
mean anomaly (°)99.22315
mean daily motion (°/day)0.22019110
aphelion distance (AU)3.157
period (years)4.48
P-vector [x]0.56408178
P-vector [y]-0.76133787
P-vector [z]-0.31965044
Q-vector [x]0.82571110
Q-vector [y]0.51840983
Q-vector [z]0.22237902
absolute magnitude16.92
phase slope0.15
uncertainty0
referenceMPEC 2024-A65
observations used321
oppositions16
arc length (days)8496
first opposition used2000
last opposition used2024
residual rms (arc-secs)0.78
perturbers coarse indicatorM-v
perturbers precise indicator003Ek
first observation date used2000-10-01.0
last observation date used2024-01-05.0
computer nameMPCLINUX
JD of orbit computation2456523.313828
perihelion JD uncertainty (days)8.4269E-05
argument of perihelion uncertainty (°)5.1996E-04
ascending node uncertainty (°)5.1948E-04
inclination uncertainty (°)5.7474E-06
eccentricity uncertainty 4.0617E-08
perihelion distance uncertainty (AU)1.1294E-07
Minimum Orbit Intersection Distances (in AU)
for orbit epoch: 2460200.5, reference: E2024-A65
Mercury1.83685
Venus1.54861
Earth1.25957
Mars0.86761
Jupiter2.06585
Saturn5.94283
Uranus15.3693
Neptune26.9861

Observations

326 total observations over interval: 2000 10 01.25171 – 2024 01 05.256329
These data are available for download (format description).

Date (UT) J2000 RA J2000 Dec Magn Location Ref
2000 10 01.25171 01 06 44.10 +07 14 06.5 19.8   704 – Lincoln Laboratory ETS, New Mexico MPS 176072
2000 10 01.26682 01 06 43.37 +07 14 02.0 20.0   704 – Lincoln Laboratory ETS, New Mexico MPS 176072
2000 10 01.28194 01 06 42.58 +07 13 57.5 20.3   704 – Lincoln Laboratory ETS, New Mexico MPS 176072
2000 10 01.30741 01 06 41.25 +07 13 48.1 20.3   704 – Lincoln Laboratory ETS, New Mexico MPS 176072
2000 10 01.32332 01 06 40.48 +07 13 42.5 20.4   704 – Lincoln Laboratory ETS, New Mexico MPS 176072
2004 07 19.34554 20 33 29.35 -17 45 47.9 19.1 R 699 – Lowell Observatory-LONEOS MPS 110819
2004 07 19.36179 20 33 28.54 -17 45 51.0   699 – Lowell Observatory-LONEOS MPS 110819
2004 07 19.37806 20 33 27.70 -17 45 53.7   699 – Lowell Observatory-LONEOS MPS 110819
2004 07 19.39432 20 33 26.96 -17 45 54.0   699 – Lowell Observatory-LONEOS MPS 110819
2004 07 21.62727 20 31 35.64 -17 52 31.1 19.5 R E12 – Siding Spring Survey MPS 110819
2004 07 21.63667 20 31 35.11 -17 52 32.4 19.3 R E12 – Siding Spring Survey MPS 110819
2004 07 21.64606 20 31 34.62 -17 52 33.5 19.8 R E12 – Siding Spring Survey MPS 110819
2004 07 21.65550 20 31 34.19 -17 52 35.8 18.7 R E12 – Siding Spring Survey MPS 110819
2005 09 30.44531 05 02 39.91 +22 23 32.5 21.5 V G96 – Mt. Lemmon Survey MPS 176072
2005 09 30.45087 05 02 40.02 +22 23 33.1 21.4 V G96 – Mt. Lemmon Survey MPS 176072
2005 09 30.45640 05 02 40.09 +22 23 33.3 20.8 V G96 – Mt. Lemmon Survey MPS 176072
2005 09 30.46194 05 02 40.20 +22 23 33.3 20.8 V G96 – Mt. Lemmon Survey MPS 176072
2005 11 05.43035 04 54 56.09 +22 03 12.0 21.4 V 691 – Steward Observatory, Kitt Peak-Spacewatch MPS 176072
2005 11 05.44776 04 54 55.38 +22 03 10.3 21.5 V 691 – Steward Observatory, Kitt Peak-Spacewatch MPS 176072
2005 11 05.46516 04 54 54.58 +22 03 09.3 21.3 V 691 – Steward Observatory, Kitt Peak-Spacewatch MPS 176072
2005 12 04.30282 04 28 54.33 +21 09 44.0 19.9 V G96 – Mt. Lemmon Survey MPS 176072
2005 12 04.30780 04 28 54.01 +21 09 42.9 20.4 V G96 – Mt. Lemmon Survey MPS 176072
2005 12 04.31281 04 28 53.68 +21 09 41.9 20.6 V G96 – Mt. Lemmon Survey MPS 176072
2005 12 04.31785 04 28 53.40 +21 09 42.0 19.9 V G96 – Mt. Lemmon Survey MPS 176072
2005 12 25.08612 04 11 05.56 +20 26 44.2 21.3 V 691 – Steward Observatory, Kitt Peak-Spacewatch MPS 159954
2005 12 25.10156 04 11 04.90 +20 26 42.3 21.1 V 691 – Steward Observatory, Kitt Peak-Spacewatch MPS 159954
2005 12 25.11700 04 11 04.27 +20 26 41.0 21.1 V 691 – Steward Observatory, Kitt Peak-Spacewatch MPS 159954
2006 01 05.20947 04 05 02.54 +20 11 16.0 22.3 V G96 – Mt. Lemmon Survey MPS 159954
2006 01 05.21748 04 05 02.29 +20 11 15.7 21.4 V G96 – Mt. Lemmon Survey MPS 159954
2006 01 05.22550 04 05 02.11 +20 11 15.3 21.8 V G96 – Mt. Lemmon Survey MPS 159955
2006 01 05.23351 04 05 01.86 +20 11 14.4 22.0 V G96 – Mt. Lemmon Survey MPS 159955
2007 02 13.29483 09 38 10.10 +13 22 59.7 20.6 V G96 – Mt. Lemmon Survey MPS 199508
2007 02 13.30371 09 38 09.63 +13 23 02.2 21.1 V G96 – Mt. Lemmon Survey MPS 199508
2007 02 13.31263 09 38 09.13 +13 23 04.5 21.3 V G96 – Mt. Lemmon Survey MPS 199508
2007 02 13.32235 09 38 08.59 +13 23 06.6 21.2 V G96 – Mt. Lemmon Survey MPS 199508
2007 03 09.27536 09 19 04.15 +14 58 25.0 21.5 V G96 – Mt. Lemmon Survey MPS 202370
2007 03 09.28138 09 19 03.90 +14 58 26.4 21.8 V G96 – Mt. Lemmon Survey MPS 202370
2007 03 09.28741 09 19 03.64 +14 58 27.5 21.5 V G96 – Mt. Lemmon Survey MPS 202370
2007 03 09.29343 09 19 03.43 +14 58 29.0 21.9 V G96 – Mt. Lemmon Survey MPS 202370
2008 05 02.38723 15 32 53.06 -18 42 31.7 20.3 V 691 – Steward Observatory, Kitt Peak-Spacewatch MPS 248172
2008 05 02.40489 15 32 52.18 -18 42 28.7 20.2 V 691 – Steward Observatory, Kitt Peak-Spacewatch MPS 248172
2008 05 02.42345 15 32 51.22 -18 42 25.0 20.3 V 691 – Steward Observatory, Kitt Peak-Spacewatch MPS 248172
2008 05 13.29145 15 23 19.22 -18 05 19.3 20.3 V 691 – Steward Observatory, Kitt Peak-Spacewatch MPS 249826
2008 05 13.30917 15 23 18.25 -18 05 15.4 20.2 V 691 – Steward Observatory, Kitt Peak-Spacewatch MPS 249826
2008 05 13.32687 15 23 17.23 -18 05 11.5 20.5 V 691 – Steward Observatory, Kitt Peak-Spacewatch MPS 249826
2008 05 26.24068 15 11 47.54 -17 18 33.3 19.8 V G96 – Mt. Lemmon Survey MPS 250449
2008 05 26.24671 15 11 47.18 -17 18 30.7 19.8 V G96 – Mt. Lemmon Survey MPS 250449
2008 05 26.25298 15 11 46.86 -17 18 29.8 21.3 V G96 – Mt. Lemmon Survey MPS 250449
2008 05 26.25923 15 11 46.57 -17 18 28.9 19.9 V G96 – Mt. Lemmon Survey MPS 250449
2008 05 26.26662 15 11 46.15 -17 18 27.9 20.7 V 691 – Steward Observatory, Kitt Peak-Spacewatch MPS 250449
2008 05 26.28423 15 11 45.27 -17 18 24.4 20.3 V 691 – Steward Observatory, Kitt Peak-Spacewatch MPS 250449
2008 05 26.30183 15 11 44.31 -17 18 19.9 20.4 V 691 – Steward Observatory, Kitt Peak-Spacewatch MPS 250449
2008 05 31.26138 15 07 45.52 -17 01 40.2 20.2 V 691 – Steward Observatory, Kitt Peak-Spacewatch MPS 250967
2008 05 31.27902 15 07 44.66 -17 01 36.5 20.2 V 691 – Steward Observatory, Kitt Peak-Spacewatch MPS 250967
2008 05 31.29665 15 07 43.84 -17 01 33.3 20.4 V 691 – Steward Observatory, Kitt Peak-Spacewatch MPS 250967
2008 06 09.22735 15 01 43.48 -16 35 54.4 19.9 V 691 – Steward Observatory, Kitt Peak-Spacewatch MPS 251391
2008 06 09.24502 15 01 42.71 -16 35 52.5 20.3 V 691 – Steward Observatory, Kitt Peak-Spacewatch MPS 251391
2008 06 09.26269 15 01 42.11 -16 35 49.8 20.4 V 691 – Steward Observatory, Kitt Peak-Spacewatch MPS 251391
2009 09 15.34613 01 46 57.19 +11 08 48.0 20.2 V 691 – Steward Observatory, Kitt Peak-Spacewatch MPS 295680
2009 09 15.36381 01 46 56.71 +11 08 45.1 20.3 V 691 – Steward Observatory, Kitt Peak-Spacewatch MPS 295680
2009 09 15.38147 01 46 56.15 +11 08 41.9 20.5 V 691 – Steward Observatory, Kitt Peak-Spacewatch MPS 295680
2009 10 27.25149 01 14 57.98 +07 52 16.8 20.1 V G96 – Mt. Lemmon Survey MPS 301875
2009 10 27.25769 01 14 57.66 +07 52 15.1 20.2 V G96 – Mt. Lemmon Survey MPS 301875
2009 10 27.26388 01 14 57.37 +07 52 13.1 20.2 V G96 – Mt. Lemmon Survey MPS 301875
2009 10 27.26998 01 14 57.08 +07 52 11.5 20.2 V G96 – Mt. Lemmon Survey MPS 301875
2009 11 18.22300 01 02 37.64 +06 32 21.6 20.7 V G96 – Mt. Lemmon Survey MPS 304619
2009 11 18.22994 01 02 37.50 +06 32 20.8 20.7 V G96 – Mt. Lemmon Survey MPS 304619
2009 11 18.23700 01 02 37.35 +06 32 19.7 20.7 V G96 – Mt. Lemmon Survey MPS 304619
2009 11 18.24398 01 02 37.21 +06 32 18.8 20.4 V G96 – Mt. Lemmon Survey MPS 304619
2009 12 17.12266 01 04 08.65 +06 37 52.2 21.6 V G96 – Mt. Lemmon Survey MPS 308446
2009 12 17.13023 01 04 08.79 +06 37 53.6 20.9 V G96 – Mt. Lemmon Survey MPS 308446
2009 12 17.13787 01 04 08.97 +06 37 54.9 21.8 V G96 – Mt. Lemmon Survey MPS 308446
2009 12 17.14552 01 04 09.12 +06 37 55.2 21.0 V G96 – Mt. Lemmon Survey MPS 308446
2012 03 02.42656 12 30 28.80 -03 37 27.4 21.1 V 691 – Steward Observatory, Kitt Peak-Spacewatch MPS 415842
2012 03 02.44589 12 30 28.09 -03 37 22.5 21.1 V 691 – Steward Observatory, Kitt Peak-Spacewatch MPS 415842
2012 03 02.46522 12 30 27.36 -03 37 17.7 21.3 V 691 – Steward Observatory, Kitt Peak-Spacewatch MPS 415842
2012 03 21.37046 12 16 27.55 -02 04 34.2 20.1 V G96 – Mt. Lemmon Survey MPS 418223
2012 03 21.37568 12 16 27.30 -02 04 32.9 20.8 V G96 – Mt. Lemmon Survey MPS 418223
2012 03 21.38089 12 16 27.04 -02 04 30.9 20.9 V G96 – Mt. Lemmon Survey MPS 418223
2012 03 21.38610 12 16 26.76 -02 04 28.6 20.6 V G96 – Mt. Lemmon Survey MPS 418223
2012 04 18.076771 11 55 02.90 +00 20 03.4 22.3 g 309 – Cerro Paranal MPS 804413
2012 04 18.079329 11 55 02.80 +00 20 04.0 22.2 g 309 – Cerro Paranal MPS 804413
2012 04 18.084456 11 55 02.61 +00 20 05.3 22.2 g 309 – Cerro Paranal MPS 804413
2012 04 18.087026 11 55 02.51 +00 20 06.0 22.4 g 309 – Cerro Paranal MPS 804413
2012 04 18.20170 11 54 58.32 +00 20 29.9 20.7 V G96 – Mt. Lemmon Survey MPS 421637
2012 04 18.21096 11 54 57.96 +00 20 33.3 20.9 V G96 – Mt. Lemmon Survey MPS 421637
2012 04 18.22020 11 54 57.60 +00 20 35.0 20.8 V G96 – Mt. Lemmon Survey MPS 421637
2012 04 18.22935 11 54 57.24 +00 20 37.4 20.7 V G96 – Mt. Lemmon Survey MPS 421637
2012 04 29.18451 11 49 30.68 +00 58 22.5 22.2 V G96 – Mt. Lemmon Survey MPS 423520
